Other Public Products
Issued by NWS Grand Forks, ND

Home | Current Version | Previous Version | Graphics & Text | Print | Product List | Glossary On
Versions: 1 2 3 4 5 6 7 8 9 10 11 12 13 14 15 16 17 18 19 20 21 22 23 24 25 26 27 28 29 30 31 32 33 34 35 36 37 38 39 40 41 42 43 44 45 46 47 48 49 50
000
FPUS83 KFGF 030031
OPUFGF
PRAIRIE TO PINES WEATHER ROUNDUP
NATIONAL WEATHER SERVICE EASTERN NORTH DAKOTA/GRAND FORKS ND
600 PM CST FRI DEC 02 2016

 **SATELLITE DATA USED TO AUGMENT SKY COVER AT AUTOMATED STATIONS**
 *****  WEATHER ACROSS EASTERN NORTH DAKOTA  *****

CITY           SKY/WX    TMP DP  RH WIND       PRES   REMARKS
GRAND FORKS    CLOUDY    32  22  66 CALM      30.27R
6HR MIN TEMP:  31; 6HR MAX TEMP:  33;

GRAND FORKS AF CLOUDY    31  22  69 W5        30.26S
GRAND CITY NWS   N/A     30 N/A N/A W6          N/A  WCI  24
BUXTON           N/A     44  36  72 CALM        N/A
DEVILS LAKE    CLOUDY    27  20  75 SW8       30.24S WCI  19
6HR MIN TEMP:  27; 6HR MAX TEMP:  30;

FARGO          CLOUDY    30  20  66 W7        30.30R WCI  23
6HR MIN TEMP:  30; 6HR MAX TEMP:  31;

WAHPETON ARPT  CLOUDY    28  21  74 W7        30.31S WCI  21
$$

 *****  WEATHER ACROSS CENTRAL AND WESTERN NORTH DAKOTA  *****

CITY           SKY/WX    TMP DP  RH WIND       PRES   REMARKS
JAMESTOWN      CLOUDY    25  18  74 SW5       30.26S WCI  19
6HR MIN TEMP:  25; 6HR MAX TEMP:  28;

BISMARCK       CLOUDY    25  21  85 S5        30.25R WCI  19
6HR MIN TEMP:  24; 6HR MAX TEMP:  27;

MINOT          CLOUDY    27  23  85 SE6       30.16F WCI  20
6HR MIN TEMP:  27; 6HR MAX TEMP:  29;

MINOT AFB      CLOUDY    27  25  93 S12       30.15F WCI  16
6HR MIN TEMP:  27; 6HR MAX TEMP:  29;

GARRISON         N/A     27  24  89 S13       30.17F WCI  16
6HR MIN TEMP:  27; 6HR MAX TEMP:  28;

WILLISTON      CLOUDY    29  25  85 S5        30.12F WCI  24
6HR MIN TEMP:  28; 6HR MAX TEMP:  31;

DICKINSON      CLOUDY    29  25  85 S8        30.13S WCI  21
6HR MIN TEMP:  25; 6HR MAX TEMP:  29;

HETTINGER      CLOUDY    28  25  88 S3        30.18R
6HR MIN TEMP:  26; 6HR MAX TEMP:  31; 6HR PCP: TRACE;

$$

 *****  OTHER OBSERVATIONS NORTHEAST NORTH DAKOTA  *****

CITY           SKY/WX    TMP DP  RH WIND       PRES   REMARKS
WALHALLA         N/A     28  28 100 E3        30.24S
LANGDON        CLOUDY    28  25  86 W7        30.22S WCI  21
CAVALIER         N/A     32  27  80 E5        30.25S
GRAFTON        CLOUDY    32  25  74 SW3       30.27S
CANDO          CLOUDY    27  23  86 S5        30.25S WCI  21
FORT TOTTEN      N/A     26  19  74 SW5       29.95S WCI  20
ROLLA          CLOUDY    25  23  93 SW7       30.20S WCI  17
RUGBY            N/A     25  23  93 S8        30.21S WCI  16
 ***** THE ABOVE OBSERVATIONS ARE NON NWS ARE NOT QUALITY
        CONTROLLED AND MAY MIS-REPORT RAIN FOR SNOW...
$$

 *****  OTHER OBSERVATIONS SOUTHEAST NORTH DAKOTA *****

CITY           SKY/WX    TMP DP  RH WIND       PRES   REMARKS
COOPERSTOWN    CLOUDY    28  21  74 SW5       30.26S WCI  23
VALLEY CITY    CLOUDY    27  23  86 W3        30.28S
OAKES          NOT AVBL
GWINNER        CLOUDY    28  21  74 CALM      30.30R
SHEYENNE NWR     N/A     27  20  73 W3        29.95S
BUFFALO          N/A     28  16  61 CALM        N/A
WYNDMERE       NOT AVBL
 ***** THE ABOVE OBSERVATIONS ARE NON NWS ARE NOT QUALITY
       CONTROLLED AND MAY MIS-REPORT RAIN FOR SNOW...
$$

  *****  WEATHER ACROSS NORTHERN MINNESOTA  *****

CITY           SKY/WX    TMP DP  RH WIND       PRES   REMARKS
FLAG ISLAND    CLOUDY    21  19  93 NW7       30.24R WCI  13
WARROAD        CLOUDY    25  21  86 W5        30.25R WCI  19
ROSEAU         CLOUDY    27  21  80 W6        30.25R WCI  20
HALLOCK        CLOUDY    28  27  93 CALM      30.26S
THF RVR FALLS  CLOUDY    28  23  81 NW5       30.26R WCI  23
6HR MIN TEMP:  27; 6HR MAX TEMP:  28;

HALSTAD          N/A     29  21  71 W5          N/A  WCI  24
FOSSTON        CLOUDY    25  19  80 W5        30.26R WCI  19
BAUDETTE       CLOUDY    24  20  84 W3        30.23S
6HR MIN TEMP:  23; 6HR MAX TEMP:  25;

WASKISH        CLOUDY    27  21  80 W5        30.24S WCI  21
CROOKSTON      CLOUDY    30  21  69 W3        30.28S
$$
  *****  WEATHER ACROSS CENTRAL AND WEST MINNESOTA  *****

CITY           SKY/WX    TMP DP  RH WIND       PRES   REMARKS
BEMIDJI        CLOUDY    25  20  83 W5        30.24S WCI  19
PARK RAPIDS    CLOUDY    25  18  74 NW9       30.25R WCI  15
6HR MIN TEMP:  25; 6HR MAX TEMP:  27;

WADENA         CLOUDY    25  19  80 NW5       30.27R WCI  19
DETROIT LAKES  CLOUDY    28  23  80 NW8       30.27S WCI  20
MOORHEAD       CLOUDY    28  19  69 W5        30.30S WCI  23
FERGUS FALLS   CLOUDY    27  19  74 N5        30.33S WCI  21
ELBOW LAKE     CLOUDY    26  21  81 CALM      30.30S
MORRIS MN      CLOUDY    27  21  80 NW8       30.30R WCI  18
STAPLES        CLOUDY    25  21  86 W6        30.27R WCI  18
WHEATON        NOT AVBL
$$
  *****  WEATHER ELSEWHERE ACROSS MINNESOTA  *****

CITY           SKY/WX    TMP DP  RH WIND       PRES   REMARKS
DULUTH         CLOUDY    29  24  82 NW6       30.21R WCI  23
6HR MIN TEMP:  27; 6HR MAX TEMP:  29;

INTRNTL FALLS  CLOUDY    23  20  88 W5        30.23R WCI  17
6HR MIN TEMP:  23; 6HR MAX TEMP:  26;

ELY            CLOUDY    27  25  93 CALM      30.20S
CLOQUET        CLOUDY    28  23  80 W5        30.22S WCI  23
BRAINERD       CLOUDY    25  21  85 NW6       30.27R WCI  18
6HR MIN TEMP:  25; 6HR MAX TEMP:  27;

HIBBING        CLOUDY    25  22  88 NW9       30.22R WCI  15
6HR MIN TEMP:  25; 6HR MAX TEMP:  27;

ALEXANDRIA     CLOUDY    26  21  81 W9        30.28R WCI  17
6HR MIN TEMP:  26; 6HR MAX TEMP:  27;

SAINT CLOUD    CLOUDY    29  23  78 NW7       30.28R WCI  22
6HR MIN TEMP:  29; 6HR MAX TEMP:  30;

MINNEAPOLIS    CLOUDY    32  23  69 W9        30.29R WCI  24
6HR MIN TEMP:  32; 6HR MAX TEMP:  33;

$$

  *****  WEATHER ACROSS SOUTH DAKOTA  *****

CITY           SKY/WX    TMP DP  RH WIND       PRES   REMARKS
SIOUX FALLS    CLOUDY    31  26  82 N7        30.29S WCI  24
6HR MIN TEMP:  31; 6HR MAX TEMP:  34;

BROOKINGS      FLURRIES  26  20  77 NW6       30.27S WCI  19
WATERTOWN      CLOUDY    24  17  74 NW9       30.27R WCI  14
6HR MIN TEMP:  24; 6HR MAX TEMP:  27; 6HR PCP: TRACE;

HURON          CLOUDY    29  26  89 N3        30.30S
6HR MIN TEMP:  29; 6HR MAX TEMP:  32; 6HR PCP: TRACE;

SISSETON         N/A     27  19  72 N5        30.30R WCI  22
ABERDEEN       CLOUDY    28  19  69 CALM      30.30S
6HR MIN TEMP:  28; 6HR MAX TEMP:  29; 6HR PCP: TRACE;

MITCHELL       CLOUDY    31  27  85 N3        30.31S
PIERRE         MOCLDY    28  24  85 SE3       30.25S
6HR MIN TEMP:  28; 6HR MAX TEMP:  31;

MOBRIDGE       CLOUDY    29  24  82 SE6       30.22S WCI  23
RAPID CITY     CLEAR     29  24  82 SE3       30.19R
6HR MIN TEMP:  28; 6HR MAX TEMP:  41;

$$

  *****  SOME WEATHER IN NEARBY STATES *****

CITY           SKY/WX    TMP DP  RH WIND       PRES   REMARKS
GLASGOW MT     CLEAR     28  23  81 S9        30.02F WCI  19
6HR MIN TEMP:  27; 6HR MAX TEMP:  39;

GREAT FALLS MT CLEAR     28  17  63 SW17      29.96F WCI  16
6HR MIN TEMP:  28; 6HR MAX TEMP:  33;

CHEYENNE WY    CLOUDY    25  21  85 S8        30.13S WCI  16
6HR MIN TEMP:  25; 6HR MAX TEMP:  31; 6HR PCP:  0.01;

SCOTTSBLUFF NE CLOUDY    33  18  53 SE3       30.20R
6HR MIN TEMP:  32; 6HR MAX TEMP:  41;

OMAHA NE       MOCLDY    37  28  70 CALM      30.32R
6HR MIN TEMP:  35; 6HR MAX TEMP:  43;

DES MOINES IA  CLOUDY    37  34  87 N7        30.31R
6HR MIN TEMP:  38; 6HR MAX TEMP:  41;

DAVENPORT IA   CLOUDY    34  26  72 NW8       30.30R
6HR MIN TEMP:  34; 6HR MAX TEMP:  40;

CHICAGO IL     CLOUDY    37  25  61 N13       30.24S
6HR MIN TEMP:  37; 6HR MAX TEMP:  40;

EAU CLAIRE WI  CLOUDY    32  24  72 W6        30.27R
6HR MIN TEMP:  31; 6HR MAX TEMP:  32;

LA CROSSE WI   CLOUDY    35  23  61 W7        30.29R
6HR MIN TEMP:  34; 6HR MAX TEMP:  35;

$$

  *****  SOME NATIONAL WEATHER *****

CITY           SKY/WX    TMP DP  RH WIND       PRES   REMARKS
LA GUARDIA NY  MOCLDY    49  28  44 W15G28    29.89R
6HR MIN TEMP:  49; 6HR MAX TEMP:  53;                              C1F1C2F2C3F3C4F4C5F5C6F6C7F7C8F8C9F9CaFaCbFbCcFcCdFdCe!



USA.gov is the U.S. government's official web portal to all federal, state and local government web resources and services.